Regional Weather Roundup
Issued by NWS

Home | Current Version | Previous Version | Text Only | Print | Product List | Glossary Off
Versions: 1 2 3 4 5 6 7 8 9 10 11 12 13 14 15 16 17 18 19 20 21 22 23 24 25 26 27 28 29 30 31 32 33 34 35 36 37 38 39 40 41 42 43 44 45 46 47 48 49 50

724
ASUS44 KLIX 190801
RWRLA
LOUISIANA WEATHER ROUNDUP
NATIONAL WEATHER SERVICE NEW ORLEANS LA
300 AM CDT FRI SEP 19 2014

NOTE: "FAIR" INDICATES FEW OR NO CLOUDS BELOW 12,000 FEET WITH NO
      SIGNIFICANT WEATHER AND/OR OBSTRUCTIONS TO VISIBILITY.
      SKY/WX - SKY CONDITION AND SIGNIFICANT WEATHER.
      TMP - AIR TEMPERATURE.    DP   - DEWPOINT TEMPERATURE.
      RH  - RELATIVE HUMIDITY.  PRES - PRESSURE.
      HX  - HEAT INDEX.         WCI  - WIND CHILL INDEX.

*  THESE STATIONS ARE NOT NWS OR FAA STATIONS AND ARE NOT UNDER
   NWS QUALITY CONTROL.

LAZ040-048-061>063-065-066-069-190900-
SOUTHEAST LOUISIANA

CITY           SKY/WX    TMP DP  RH WIND       PRES   REMARKS
N.O. AUDUBON     N/A     73  70  90 MISG        N/A
N.O. INTL ARPT CLOUDY    74  68  81 SW5       29.90F
N.O. LAKEFRONT CLOUDY    74  70  87 E8        29.91F
N.O. DOWNTOWN* CLOUDY    73  66  78 SE6       29.90F
SLIDELL        CLOUDY    72  70  93 CALM      29.91F
BATON ROUGE    CLOUDY    72  70  93 NE3       29.91F
BOOTHVILLE     CLOUDY    73  68  84 E7        29.93S
BELLE CHASSE   CLOUDY    73  68  84 E8        29.90F
BOGALUSA*        N/A     73  69  87 CALM      29.94F
GALLIANO*      NOT AVBL
NEW ROADS*     CLOUDY    72  71  96 CALM      29.91F
GONZALES*      RAIN      73  73 100 CALM      29.91S
HAMMOND*       NOT AVBL
HOUMA*         LGT RAIN  74  67  77 E13       29.91S
PORT FOURCHON* CLOUDY    75  73  94 NE16G23   29.93S FOG

$$

LAZ041-044-053-054-190900-
SOUTHWEST LOUISIANA

CITY           SKY/WX    TMP DP  RH WIND       PRES   REMARKS
LAKE CHARLES   CLOUDY    76  75  97 E3        29.89F
LAFAYETTE      CLOUDY    73  71  93 NE3       29.91F
PATTERSON      CLOUDY    73  72  94 E3        29.92F
SALT POINT       N/A     76  73  91 CALM      29.89F
NEW IBERIA     CLOUDY    74  71  91 E5        29.91F
CHENAULT AIRPK NOT AVBL

$$

LAZ027-028-190900-
CENTRAL LOUISIANA

CITY           SKY/WX    TMP DP  RH WIND       PRES   REMARKS
FORT POLK      CLOUDY    73  71  93 NE3       29.91F
ALEXANDRIA INT MOCLDY    73  71  93 E3        29.90F
ALEXANDRIA     CLOUDY    73  70  90 CALM      29.92F

$$

LAZ001-002-190900-
NORTHWEST LOUISIANA

CITY           SKY/WX    TMP DP  RH WIND       PRES   REMARKS
SHREVEPORT     MOCLDY    73  69  87 CALM      29.92F
BARKSDALE AFB  MOCLDY    72  71  97 N1        29.93F
DTN SHREVEPORT MOCLDY    73  70  90 CALM      29.92F

$$

LAZ014-016-190900-
NORTHEAST LOUISIANA

CITY           SKY/WX    TMP DP  RH WIND       PRES   REMARKS
MONROE         PTCLDY    70  67  90 NE3       29.94F
TALLULAH       PTCLDY    67  65  93 NE5       29.93F

$$




USA.gov is the U.S. government's official web portal to all federal, state and local government web resources and services.